Regional Weather Roundup
Issued by NWS

Home | Current Version | Previous Version | Text Only | Print | Product List | Glossary Off
Versions: 1 2 3 4 5 6 7 8 9 10 11 12 13 14 15 16 17 18 19 20 21 22 23 24 25 26 27 28 29 30 31 32 33 34 35 36 37 38 39 40 41 42 43 44 45 46 47 48 49 50

249
ASUS44 KLIX 270210
RWRLA
LOUISIANA WEATHER ROUNDUP
NATIONAL WEATHER SERVICE NEW ORLEANS LA
800 PM CST MON JAN 26 2015

NOTE: "FAIR" INDICATES FEW OR NO CLOUDS BELOW 12,000 FEET WITH NO
      SIGNIFICANT WEATHER AND/OR OBSTRUCTIONS TO VISIBILITY.
      SKY/WX - SKY CONDITION AND SIGNIFICANT WEATHER.
      TMP - AIR TEMPERATURE.    DP   - DEWPOINT TEMPERATURE.
      RH  - RELATIVE HUMIDITY.  PRES - PRESSURE.
      HX  - HEAT INDEX.         WCI  - WIND CHILL INDEX.

*  THESE STATIONS ARE NOT NWS OR FAA STATIONS AND ARE NOT UNDER
   NWS QUALITY CONTROL.

LAZ040-048-061>063-065-066-069-270300-
SOUTHEAST LOUISIANA

CITY           SKY/WX    TMP DP  RH WIND       PRES   REMARKS
N.O. AUDUBON     N/A     52  39  60 MISG        N/A
N.O. INTL ARPT CLEAR     49  36  61 W7        30.11R
N.O. LAKEFRONT CLEAR     55  45  68 W10       30.11S
N.O. DOWNTOWN* FAIR      55  34  44 CALM      30.11R
SLIDELL        CLEAR     45  37  73 CALM      30.09S
BATON ROUGE    CLEAR     48  36  63 CALM      30.10F
BOOTHVILLE     CLEAR     49  45  86 W6        30.12R
BELLE CHASSE   PTCLDY    45  34  65 CALM      30.10S
BOGALUSA*        N/A     43  37  81 CALM      30.10S
GALLIANO*      CLEAR     50  39  65 MISG      30.13R
NEW ROADS*     FAIR      46  37  71 CALM      30.10F
GONZALES*      FAIR      47  38  70 CALM      30.11F
HAMMOND*       CLEAR     46  36  66 CALM      30.11S
HOUMA*         CLEAR     49  39  67 W3        30.13R
PORT FOURCHON* CLEAR     54  46  76 W12       30.16R

$$

LAZ041-044-053-054-270300-
SOUTHWEST LOUISIANA

CITY           SKY/WX    TMP DP  RH WIND       PRES   REMARKS
LAKE CHARLES   CLEAR     48  40  73 SW3       30.13S
LAFAYETTE      CLEAR     50  41  71 S3        30.12S
PATTERSON      CLEAR     48  37  66 W5        30.14S
SALT POINT       N/A     52  48  86 W5        30.13R
NEW IBERIA     CLEAR     50  41  71 SW8       30.13S
CHENAULT AIRPK NOT AVBL

$$

LAZ027-028-270300-
CENTRAL LOUISIANA

CITY           SKY/WX    TMP DP  RH WIND       PRES   REMARKS
FORT POLK      CLEAR     50  39  66 SW3       30.09S
ALEXANDRIA INT CLEAR     50  38  63 CALM      30.08S
ALEXANDRIA     CLEAR     43  37  79 CALM      30.08F

$$

LAZ001-002-270300-
NORTHWEST LOUISIANA

CITY           SKY/WX    TMP DP  RH WIND       PRES   REMARKS
SHREVEPORT     CLEAR     50  36  58 SW3       30.07R
BARKSDALE AFB  CLEAR     50  34  53 VRB3      30.07R
DTN SHREVEPORT CLEAR     48  34  58 CALM      30.07R

$$

LAZ014-016-270300-
NORTHEAST LOUISIANA

CITY           SKY/WX    TMP DP  RH WIND       PRES   REMARKS
MONROE         CLEAR     50  35  56 SW6       30.06S
TALLULAH       CLEAR     48  36  63 SW3       30.05S

$$




USA.gov is the U.S. government's official web portal to all federal, state and local government web resources and services.